Погода в Ерси

Россия / Республика Дагестан     42°00′50″N   48°01′16″E
темп.,
°C
ветер,
м/с
пор.,
м/с
влажн.,
%
обл.,
%
осадки,
мм/ч
давл.,
гПа
погр.,
м
18 апреля, вс
вс1800:00+13сз1168100 0.1 101914
03:00+12зсз2270100 0.1 101916
06:00+12ююв1171100 0.0 101919
09:00+14в2162100 0.0 1018424
12:00+18всв3252100 0.2 1016975
15:00+17ссв325724 0.6 1016844
18:00+13ссв236558 0.2 1017142
21:00+12з2273100 0.3 101921
19 апреля, пн
пн1900:00+12ссз1172100 0.0 101811
03:00+12ссв2170100 0.0 101719
06:00+12ююв1171100 0.0 101719
09:00+17вюв345499 0.0 1017570
12:00+20вюв454278 0.0 10161107
15:00+19вюв4444100 0.0 1016894
18:00+15вюв235864 0.0 1015102
21:00+11ююв117041 0.0 101610
20 апреля, вт
вт2000:00+11ю1274100 0.0 101611
03:00+11ююв3269100 0.0 101522
06:00+12ююв1164100 0.0 101414
09:00+16в2256100 0.0 1012335
12:00+20вюв444848 0.0 1009444
15:00+22в34465 0.0 1007474
18:00+18ссв1165100 0.0 100715
21:00+17ссз0152100 0.0 100713
21 апреля, ср
ср2100:00+18сз1145100 0.0 100711
03:00+15з2259100 0.0 100926
06:00+11ссз238978 0.0 1014180
09:00+14с338270 0.0 1016432
12:00+14ссв448197 0.0 1017571
15:00+14ссв3478100 0.2 1018592
18:00+12ссв229265 2.9 1019206
21:00+11ссв1290100 3.0 1022168
22 апреля, чт
чт2200:00+11ссв008474 0.0 102244
03:00+10св119092 0.0 102270
06:00+9вюв1191100 0.0 1023154
09:00+10юв1182100 0.0 1023293
12:00+16всв3262100 0.0 10211214
15:00+12св2276100 0.1 1022632
18:00+10ссз2285100 0.0 1023380
21:00+11зсз0184100 0.1 1024105